User: anonymous   Login
Location: Eschertshofen
(49.3064°N, 11.5756°E)
Time: 18:53:39
(UTC+00:00)
Language:

IRIDIUM 105 - Orbit

View from above orbital plane
View from above orbital plane
View from above satellite
View from above satellite

Ground track
Ground track

The orbit data is extracted from the following two-line orbital elements,

1 41921U 17003E   22015.91020578  .00000144  00000-0  44231-4 0  9997
2 41921  86.3974  10.9848 0002047 104.9429 255.1993 14.34223465263906
Epoch (UTC): 15 January 2022 21:50:41
Eccentricity: 0.0002047
inclination: 86.3974°
perigee height: 776 km
apogee height: 779 km
right ascension of ascending node: 10.9848°
argument of perigee: 104.9429°
revolutions per day: 14.34223465
mean anomaly at epoch: 255.1993°
orbit number at epoch: 26390

The dashed part of the orbit path shows where the satellite is in the earth's shadow,  

DLR